STARLINK-1707, 46359

Orbit data source: Space-Track

STARLINK-1707, 46359 is a payload satellite owned by SpaceX/Seattle (US) in LEO that was launched on Thu, 03 Sep 2020 UTC via an FALCON 9 launch vehicle from the Air Force Eastern Test Range (AFETR). Payload-class satellites include a variety of spacecraft equipped with specific instruments for various scientific and technological missions. These include communications satellites like Starlink; space stations such as the ISS; scientific satellites like the Hubble; Earth observation satellites from companies like Planet Labs, Umbra, and HawkEye 360; GPS; miniature CubeSats for education and research; and military/defense satellites.

Loading next visibility...
Identifier
46359, 2020-062AL
Orbit
LEO
Country
Flag of USUS
Related business
Manufacturer
SpaceX/Seattle
Mission
Partially operational Commercial Communications
Bus & Motor
STARLINK, Unknown motor
Mass
260 kg wet, ~248 kg dry
Launch date (UTC)
2020-09-03 (5 years ago)
Launch vehicle
FALCON 9
Launch site
Air Force Eastern Test Range (AFETR)
Object type
Payload
Rocket body
Debris
Shape & HBR
Box + 1 Pan, 10.1 m
Radar Cross Section
13.562 m², Large (>1 m²)

Expand to show TLE details & history
Last TLE update: 22 hours ago

TLE from 22 hours ago
0 STARLINK-1707
1 46359U 20062AL  25299.99373753  .00074136  00000-0  23704-2 0  9999
2 46359  53.0343 192.9116 0009065  85.9922 274.2113 15.31754186285052
Epoch: 2025-10-26T23:50Z
TLE epoch observation values (Epoch: 2025-10-26T23:50:58.922Z)
Latitude
-0.0001°
Longitude
159.56406°
Altitude
471.015 km
Speed
7.632 km/s
True Right ascension
12h 51m 38s
True Declination
0° 00' 00"
Sunlit
Object was in daylight at epoch
Visualization orbit readout
Latitude
Unknown
Longitude
Unknown
Altitude
Unknown
Speed
Unknown
Apparent Right ascension
Unknown
Apparent Declination
Unknown
Sunlit
N/A
Visualization observer readout
Local Sidereal Time
16:49:15
Azimuth
Unknown
Elevation
Unknown
Doppler factor
Unknown
Orbital elements
Apogee altitude
477.064 km
Perigee altitude
464.647 km
Semi-major axis
6,848.992 km
Eccentricity
0.00091
Inclination
53.0343°
RAAN
192.9116°
Arg. of periapsis
85.9922°
True anomaly
274.10769°
Mean anomaly
274.2113°
Eccentric anomaly
274.1595°
Mean motion
3.82916 °/min
Orbital period
94.02 mins
BSTAR
0.0023704
Loading maneuver chart data...
Computing Atmospheric mass density...

Documentation

Showing up to 5 results
|